Flag for Israel Weather past 2 weeks in Hadera, Israel

Now
68 °F

Clear.


Feels Like: 68 °F
Forecast: 59 / 78 °F
Wind: 5 mph from East

Location: Dov Airport

Current Time: Oct 21, 2014 at 2:13:02 AM

Latest Report: Oct 20, 2014 at 11:50 PM


Visibility: 10 mi

Pressure: 29.92 "Hg

Humidity: 53%

Dew point: 50 °F

Location of HaderaLocation

Historic Weather in Hadera — Graph

°F

Hadera temperature yesterday

Maximum temperature yesterday: 77 °F (at 11:50 AM)
Minimum temperature yesterday: 66 °F (at 5:50 AM)
Average temperature yesterday: 73 °F

Past Weeks' High & Low Weather Summary

 TemperatureHumidityPressure
High84 °F (Oct 8, 2:50 PM)94% (Oct 19, 5:50 PM)30.12 "Hg (Oct 19, 5:50 PM)
Low66 °F (Oct 20, 5:50 AM)42% (Oct 20, 12:50 PM)29.71 "Hg (Oct 19, 2:50 PM)
Average77 °F66%29.93 "Hg
* Reported Oct 6 5:50 AM — Oct 20 11:50 PM, Hadera, Weather by CustomWeather, © 2014

Note: Actual official high and low records may vary slightly from our data, if they occured in-between our weather recording intervals... More about our weather records

Advertising

Hadera weather history for previous 24 hours

 ConditionsComfort  
Time TempWeatherWind HumidityBarometerVisibility
11:50 PM
Oct 20
68 °FClear.5 mph53%29.92 "Hg10 mi
10:50 PM68 °FClear.5 mph56%29.92 "Hg10 mi
9:50 PM70 °FClear.3 mph53%29.92 "Hg10 mi
8:50 PM72 °FClear.9 mph50%29.92 "Hg10 mi
7:50 PM72 °FClear.10 mph50%29.89 "Hg10 mi
6:50 PM73 °FPassing clouds.12 mph47%29.89 "HgN/A
5:50 PM73 °FScattered clouds.13 mph50%29.86 "HgN/A
4:50 PM75 °FPassing clouds.13 mph47%29.86 "HgN/A
3:50 PM75 °FPassing clouds.14 mph47%29.86 "HgN/A
2:50 PM77 °FScattered clouds.14 mph44%29.86 "HgN/A
1:50 PM77 °FScattered clouds.14 mph44%29.86 "HgN/A
12:50 PM77 °FScattered clouds.12 mph42%29.86 "HgN/A
11:50 AM77 °FScattered clouds.10 mph47%29.86 "HgN/A
10:50 AM75 °FScattered clouds.6 mph54%29.89 "HgN/A
9:50 AM75 °FPassing clouds.5 mph61%29.86 "HgN/A
8:50 AM70 °FPassing clouds.7 mph73%29.86 "HgN/A
7:50 AM66 °FScattered clouds.6 mph83%29.83 "HgN/A
5:50 AM66 °FPassing clouds.3 mph83%29.80 "HgN/A
Weather by CustomWeather, © 2014

See weather overviewHow to use our weather pages